Radiation Dose measured at Intake/Vertical shaft monitor
Date,Time,Intake(cps),Vertical shaft(cps),Rain
2024/05/28,00:00,7.8,4.6,No
2024/05/28,00:10,7.7,4.6,No
2024/05/28,00:20,7.8,4.5,No
2024/05/28,00:30,7.7,4.4,No
2024/05/28,00:40,7.8,4.6,No
2024/05/28,00:50,7.7,4.5,No
2024/05/28,01:00,7.7,4.6,No
2024/05/28,01:10,7.8,4.7,No
2024/05/28,01:20,7.7,4.5,No
2024/05/28,01:30,7.7,4.5,No
2024/05/28,01:40,7.8,4.4,No
2024/05/28,01:50,7.7,4.6,No
2024/05/28,02:00,7.8,4.5,No
2024/05/28,02:10,7.7,4.6,No
2024/05/28,02:20,7.8,4.4,No
2024/05/28,02:30,7.8,4.4,No
2024/05/28,02:40,7.8,4.5,No
2024/05/28,02:50,7.8,4.3,No
2024/05/28,03:00,7.7,4.5,No
2024/05/28,03:10,7.7,4.6,No
2024/05/28,03:20,7.8,4.5,No
2024/05/28,03:30,7.7,4.7,No
2024/05/28,03:40,7.7,4.6,No
2024/05/28,03:50,7.7,4.5,No
2024/05/28,04:00,7.8,4.6,Yes
2024/05/28,04:10,7.9,4.5,Yes
2024/05/28,04:20,7.8,4.5,No
2024/05/28,04:30,7.7,4.6,No
2024/05/28,04:40,7.8,4.5,No
2024/05/28,04:50,7.9,4.5,Yes
2024/05/28,05:00,7.9,4.5,Yes
2024/05/28,05:10,7.7,4.5,Yes
2024/05/28,05:20,7.8,4.5,Yes
2024/05/28,05:30,8.0,4.4,Yes
2024/05/28,05:40,8.2,4.5,Yes
2024/05/28,05:50,7.9,4.6,Yes
2024/05/28,06:00,8.3,4.8,No
2024/05/28,06:10,8.1,4.6,No
2024/05/28,06:20,8.0,4.4,No
2024/05/28,06:30,8.1,4.5,Yes
2024/05/28,06:40,7.8,4.5,Yes
2024/05/28,06:50,7.8,4.6,Yes
2024/05/28,07:00,8.0,4.7,Yes
2024/05/28,07:10,7.9,4.5,Yes
2024/05/28,07:20,8.0,4.6,Yes
2024/05/28,07:30,8.3,4.7,Yes
2024/05/28,07:40,8.6,4.6,Yes
2024/05/28,07:50,8.2,4.6,Yes
2024/05/28,08:00,8.1,4.8,Yes
2024/05/28,08:10,8.2,4.9,Yes
2024/05/28,08:20,8.2,4.8,Yes
2024/05/28,08:30,8.5,4.8,Yes
2024/05/28,08:40,8.2,4.8,Yes
2024/05/28,08:50,8.4,4.8,Yes
2024/05/28,09:00,8.4,4.7,Yes
2024/05/28,09:10,8.7,4.9,Yes
2024/05/28,09:20,8.4,4.9,Yes
2024/05/28,09:30,8.6,4.8,Yes
2024/05/28,09:40,8.8,4.7,Yes
2024/05/28,09:50,9.0,4.9,Yes
2024/05/28,10:00,9.1,5.1,Yes
2024/05/28,10:10,9.1,5.1,Yes
2024/05/28,10:20,9.2,5.1,Yes
2024/05/28,10:30,9.1,5.0,Yes
2024/05/28,10:40,8.8,5.1,Yes
2024/05/28,10:50,8.7,5.0,Yes
2024/05/28,11:00,8.4,5.0,Yes
2024/05/28,11:10,8.7,4.9,Yes
2024/05/28,11:20,8.4,4.7,Yes
2024/05/28,11:30,8.0,4.6,Yes
2024/05/28,11:40,8.2,4.6,Yes
2024/05/28,11:50,8.3,4.6,Yes
2024/05/28,12:00,8.2,4.6,Yes
2024/05/28,12:10,8.4,4.6,Yes
2024/05/28,12:20,8.5,4.6,Yes
2024/05/28,12:30,8.3,4.8,Yes
2024/05/28,12:40,8.6,4.7,Yes
2024/05/28,12:50,8.4,4.8,Yes
2024/05/28,13:00,8.4,4.6,Yes
2024/05/28,13:10,8.5,4.7,Yes
2024/05/28,13:20,8.4,4.7,Yes
2024/05/28,13:30,8.3,4.8,Yes
2024/05/28,13:40,8.6,4.9,Yes
2024/05/28,13:50,8.4,4.7,Yes
2024/05/28,14:00,8.5,4.6,Yes
2024/05/28,14:10,8.7,4.6,Yes
2024/05/28,14:20,8.5,4.6,Yes
2024/05/28,14:30,8.7,4.8,Yes
2024/05/28,14:40,8.7,4.7,Yes
2024/05/28,14:50,8.6,4.7,Yes
2024/05/28,15:00,8.6,4.7,Yes
2024/05/28,15:10,8.7,4.7,Yes
2024/05/28,15:20,8.6,4.6,Yes
2024/05/28,15:30,8.8,4.8,Yes
2024/05/28,15:40,9.1,4.8,Yes
2024/05/28,15:50,8.8,4.7,Yes
2024/05/28,16:00,8.6,4.9,Yes
2024/05/28,16:10,8.6,4.9,Yes
2024/05/28,16:20,8.5,4.8,Yes
2024/05/28,16:30,8.6,4.8,Yes
2024/05/28,16:40,8.6,4.7,Yes
2024/05/28,16:50,8.5,4.6,Yes
2024/05/28,17:00,8.7,4.7,Yes
2024/05/28,17:10,8.7,4.6,Yes
2024/05/28,17:20,8.6,4.7,Yes
2024/05/28,17:30,8.6,4.8,Yes
2024/05/28,17:40,8.6,4.8,Yes
2024/05/28,17:50,8.8,4.9,Yes
2024/05/28,18:00,8.7,4.8,Yes
2024/05/28,18:10,8.8,4.8,Yes
2024/05/28,18:20,8.8,4.9,Yes
2024/05/28,18:30,9.0,5.1,Yes
2024/05/28,18:40,8.6,5.1,Yes
2024/05/28,18:50,8.7,5.0,Yes
2024/05/28,19:00,8.7,4.9,Yes
2024/05/28,19:10,8.9,4.8,Yes
2024/05/28,19:20,8.8,4.9,Yes
2024/05/28,19:30,9.1,5.0,Yes
2024/05/28,19:40,8.9,4.9,Yes
2024/05/28,19:50,8.8,4.8,Yes
2024/05/28,20:00,8.6,4.9,Yes
2024/05/28,20:10,8.8,5.0,Yes
2024/05/28,20:20,8.7,4.7,Yes
2024/05/28,20:30,8.4,4.8,Yes
2024/05/28,20:40,8.7,4.9,Yes
2024/05/28,20:50,8.6,4.9,Yes
2024/05/28,21:00,8.6,4.8,Yes
2024/05/28,21:10,8.5,4.8,Yes
2024/05/28,21:20,8.1,4.8,Yes
2024/05/28,21:30,8.4,4.7,Yes
2024/05/28,21:40,8.4,4.8,Yes
2024/05/28,21:50,8.3,4.8,Yes
2024/05/28,22:00,8.6,4.7,Yes
2024/05/28,22:10,8.3,4.7,Yes
2024/05/28,22:20,8.6,4.9,Yes
2024/05/28,22:30,8.3,4.8,Yes
2024/05/28,22:40,8.5,4.7,Yes
2024/05/28,22:50,8.4,4.8,Yes
2024/05/28,23:00,8.4,4.8,Yes
2024/05/28,23:10,8.3,4.9,Yes
2024/05/28,23:20,8.4,4.9,Yes
2024/05/28,23:30,8.3,4.8,Yes
2024/05/28,23:40,8.2,4.7,Yes
2024/05/28,23:50,8.3,4.7,Yes
